DW8284 Weather Reports


time (UTC)temp
C
wind
direction
speed
KPH
gust
KPH
rain 1hr
cm
rain 24hr
cm
rain mn
cm
humidity
%
barometer
mb
20260506233045 12 316 1.6 14.5 0.00 0.00 0.00 46 1015.6
20260506232540 13 0 1.6 14.5 0.00 0.00 0.00 46 1015.6
20260506232038 13 265 1.6 9.7 0.00 0.00 0.00 45 1015.7
20260506231545 13 254 0.0 9.7 0.00 0.00 0.00 47 1015.5
20260506231040 13 265 1.6 9.7 0.00 0.00 0.00 45 1015.6
20260506230537 13 0 0.0 9.7 0.00 0.00 0.00 46 1015.4
20260506230048 13 0 0.0 6.4 0.00 0.00 0.00 46 1015.4
20260506225536 13 0 1.6 6.4 0.00 0.00 0.00 45 1015.4
20260506225040 13 265 0.0 6.4 0.00 0.00 0.00 44 1015.5
20260506224550 13 178 1.6 8.0 0.00 0.00 0.00 44 1015.5
20260506224040 13 265 1.6 8.0 0.00 0.00 0.00 44 1015.4
20260506223542 13 0 1.6 11.3 0.00 0.00 0.00 43 1015.4
20260506223050 13 265 1.6 12.9 0.00 0.00 0.00 44 1015.3
20260506222540 13 282 1.6 12.9 0.00 0.00 0.00 45 1015.2
20260506222045 13 286 1.6 9.7 0.00 0.00 0.00 44 1015.2
20260506221555 13 254 1.6 9.7 0.00 0.00 0.00 44 1015.1
20260506221044 13 0 1.6 9.7 0.00 0.00 0.00 43 1015.2
20260506220541 13 334 1.6 12.9 0.00 0.00 0.00 42 1015.1
20260506220052 14 205 1.6 12.9 0.00 0.00 0.00 44 1015.1
20260506215540 14 250 3.2 12.9 0.00 0.00 0.00 43 1015.1
20260506215041 14 265 1.6 12.9 0.00 0.00 0.00 42 1015.1
20260506214548 14 286 1.6 11.3 0.00 0.00 0.00 44 1015.2
20260506214041 14 321 1.6 11.3 0.00 0.00 0.00 44 1015.1
20260506213543 14 279 1.6 9.7 0.00 0.00 0.00 44 1015.2
20260506213049 14 51 1.6 9.7 0.00 0.00 0.00 46 1015.2
20260506212541 14 265 1.6 9.7 0.00 0.00 0.00 44 1015.2
20260506212041 14 257 1.6 19.3 0.00 0.00 0.00 43 1015.2
20260506211549 15 51 1.6 19.3 0.00 0.00 0.00 43 1015.2
20260506211038 15 168 3.2 14.5 0.00 0.00 0.00 43 1015.2
20260506210539 15 250 1.6 12.9 0.00 0.00 0.00 44 1015.3
20260506210054 14 0 1.6 12.9 0.00 0.00 0.00 44 1015.3
20260506205541 14 178 3.2 11.3 0.00 0.00 0.00 41 1015.3
20260506205041 15 284 1.6 9.7 0.00 0.00 0.00 42 1015.3
20260506204559 15 250 1.6 9.7 0.00 0.00 0.00 41 1015.2
20260506204045 15 178 1.6 9.7 0.00 0.00 0.00 42 1015.4
20260506203541 15 0 1.6 9.7 0.00 0.00 0.00 44 1015.4
20260506203048 15 0 1.6 9.7 0.00 0.00 0.00 44 1015.2
20260506202541 15 68 1.6 9.7 0.00 0.00 0.00 42 1015.3
20260506202041 15 265 3.2 16.1 0.00 0.00 0.00 43 1015.4
20260506201553 14 0 3.2 16.1 0.00 0.00 0.00 43 1015.5
20260506201040 14 265 1.6 16.1 0.00 0.00 0.00 44 1015.5
20260506200540 14 26 1.6 9.7 0.00 0.00 0.00 43 1015.5
20260506200107 14 261 1.6 9.7 0.00 0.00 0.00 43 1015.4
20260506195541 15 0 1.6 9.7 0.00 0.00 0.00 43 1015.4
20260506195042 15 238 1.6 11.3 0.00 0.00 0.00 45 1015.4
20260506194557 15 120 1.6 16.1 0.00 0.00 0.00 46 1015.5
20260506194040 15 247 1.6 16.1 0.00 0.00 0.00 43 1015.5
20260506193543 14 265 1.6 17.7 0.00 0.00 0.00 47 1015.6
20260506193048 14 265 3.2 17.7 0.00 0.00 0.00 44 1015.7
20260506192540 14 51 3.2 9.7 0.00 0.00 0.00 47 1015.7
20260506192043 14 275 1.6 11.3 0.00 0.00 0.00 46 1015.6
20260506191545 14 0 1.6 11.3 0.00 0.00 0.00 47 1015.8
20260506191041 14 242 1.6 11.3 0.00 0.00 0.00 45 1015.9
20260506190541 14 254 1.6 12.9 0.00 0.00 0.00 44 1015.8
20260506190055 14 0 1.6 12.9 0.00 0.00 0.00 44 1015.8
20260506185541 14 265 1.6 11.3 0.00 0.00 0.00 48 1015.8
20260506185045 14 178 1.6 8.0 0.00 0.00 0.00 46 1015.7
20260506184549 14 309 1.6 11.3 0.00 0.00 0.00 45 1015.8
20260506184040 14 265 1.6 16.1 0.00 0.00 0.00 46 1015.7
20260506183541 14 196 3.2 16.1 0.00 0.00 0.00 47 1015.6
20260506183102 14 31 3.2 16.1 0.00 0.00 0.00 44 1015.6
20260506182540 14 108 1.6 8.0 0.00 0.00 0.00 47 1015.6
20260506182041 14 9 1.6 8.0 0.00 0.00 0.00 50 1015.5
20260506181557 13 259 1.6 12.9 0.00 0.00 0.00 50 1015.5
20260506181039 13 171 1.6 12.9 0.00 0.00 0.00 49 1015.6
20260506180543 13 178 0.0 6.4 0.00 0.00 0.00 50 1015.6
20260506180056 13 18 1.6 8.0 0.00 0.00 0.00 48 1015.6
20260506175544 13 336 1.6 8.0 0.00 0.00 0.00 48 1015.8
20260506175040 13 279 1.6 8.0 0.00 0.00 0.00 48 1015.7
20260506174550 13 265 1.6 8.0 0.00 0.00 0.00 47 1015.7
20260506174038 13 175 1.6 9.7 0.00 0.00 0.00 48 1015.7
20260506173540 13 196 1.6 9.7 0.00 0.00 0.00 48 1015.7
20260506173054 13 309 0.0 12.9 0.00 0.00 0.00 50 1015.8
20260506172543 13 316 1.6 12.9 0.00 0.00 0.00 51 1015.9
20260506172042 13 48 1.6 9.7 0.00 0.00 0.00 49 1015.9
20260506171549 13 221 1.6 11.3 0.00 0.00 0.00 49 1016.0
20260506171041 13 0 1.6 11.3 0.00 0.00 0.00 49 1015.9
20260506170541 12 88 1.6 11.3 0.00 0.00 0.00 51 1016.0
20260506170049 12 265 1.6 11.3 0.00 0.00 0.00 49 1016.0
20260506165540 12 291 3.2 11.3 0.00 0.00 0.00 50 1016.1
20260506165039 12 319 1.6 9.7 0.00 0.00 0.00 54 1015.9
20260506164551 12 221 1.6 8.0 0.00 0.00 0.00 53 1016.1
20260506164038 12 51 0.0 11.3 0.00 0.00 0.00 53 1016.0
20260506163540 12 334 1.6 11.3 0.00 0.00 0.00 52 1016.0
20260506163054 11 344 1.6 8.0 0.00 0.00 0.00 55 1015.9
20260506162540 11 0 0.0 4.8 0.00 0.00 0.00 57 1015.9
20260506162040 11 178 0.0 9.7 0.00 0.00 0.00 59 1015.9
20260506161602 11 0 1.6 9.7 0.00 0.00 0.00 60 1015.8
20260506161038 11 221 1.6 9.7 0.00 0.00 0.00 60 1015.7
20260506160541 11 309 0.0 6.4 0.00 0.00 0.00 65 1015.7
20260506160049 11 282 0.0 6.4 0.00 0.00 0.00 62 1015.7
20260506155542 10 238 0.0 9.7 0.00 0.00 0.00 65 1015.7
20260506155041 10 0 0.0 9.7 0.00 0.00 0.00 65 1015.6
20260506154548 10 344 0.0 4.8 0.00 0.00 0.00 65 1015.6
20260506154041 10 0 0.0 4.8 0.00 0.00 0.00 70 1015.5
20260506153539 10 0 0.0 4.8 0.00 0.00 0.00 69 1015.4
20260506153051 10 0 0.0 3.2 0.00 0.00 0.00 72 1015.4
20260506152541 10 0 0.0 3.2 0.00 0.00 0.00 71 1015.4
20260506152043 10 93 0.0 3.2 0.00 0.00 0.00 72 1015.2
20260506151603 9 9 0.0 3.2 0.00 0.00 0.00 75 1015.2
20260506151038 9 56 0.0 4.8 0.00 0.00 0.00 75 1015.1
20260506150538 9 93 0.0 4.8 0.00 0.00 0.00 75 1015.1
20260506150054 8 0 0.0 4.8 0.00 0.00 0.00 74 1015.0
20260506145539 8 0 0.0 3.2 0.00 0.00 0.00 76 1015.0
20260506145042 8 254 0.0 4.8 0.00 0.00 0.00 76 1014.9
20260506144557 8 137 0.0 4.8 0.00 0.00 0.00 76 1014.8
20260506144041 8 0 0.0 4.8 0.00 0.00 0.00 78 1014.9
20260506143539 8 34 0.0 3.2 0.00 0.00 0.00 78 1014.7
20260506143053 8 0 0.0 3.2 0.00 0.00 0.00 77 1014.7
20260506142538 8 221 0.0 4.8 0.00 0.00 0.00 77 1014.8
20260506142038 8 0 0.0 4.8 0.00 0.00 0.00 78 1014.9
20260506141552 8 61 0.0 4.8 0.00 0.00 0.00 78 1015.0
20260506141041 8 255 0.0 4.8 0.00 0.00 0.00 78 1015.0
20260506140540 7 0 0.0 4.8 0.00 0.00 0.00 78 1015.0
20260506135538 7 51 0.0 3.2 0.00 0.03 0.00 81 1015.0
20260506135038 7 257 0.0 3.2 0.00 0.03 0.00 81 1015.0
20260506134550 7 0 0.0 3.2 0.00 0.03 0.00 80 1015.1
20260506134038 7 34 0.0 1.6 0.00 0.03 0.00 82 1015.2
20260506133541 7 0 0.0 3.2 0.00 0.03 0.00 81 1015.1
20260506133054 7 0 0.0 3.2 0.00 0.03 0.00 81 1015.0
20260506132541 7 51 0.0 3.2 0.00 0.03 0.00 82 1015.1
20260506132043 6 0 0.0 3.2 0.00 0.03 0.00 83 1015.2
20260506131552 6 0 0.0 1.6 0.00 0.03 0.00 84 1015.4
20260506131040 6 0 0.0 3.2 0.00 0.03 0.00 85 1015.3
20260506130540 6 0 0.0 3.2 0.00 0.03 0.00 85 1015.2
20260506130108 6 0 0.0 3.2 0.00 0.03 0.00 85 1015.1
20260506125540 6 0 0.0 1.6 0.00 0.08 0.00 85 1014.9
20260506125040 6 0 0.0 3.2 0.00 0.08 0.00 85 1014.7
20260506124550 6 0 0.0 3.2 0.00 0.08 0.00 85 1014.6
20260506124038 6 0 0.0 1.6 0.00 0.08 0.00 86 1014.4
20260506123538 6 0 0.0 1.6 0.00 0.08 0.00 86 1014.3
20260506123050 6 0 0.0 3.2 0.00 0.08 0.00 86 1014.2
20260506122538 6 0 0.0 3.2 0.00 0.08 0.00 87 1014.1
20260506122038 6 0 0.0 3.2 0.00 0.08 0.00 88 1014.0
20260506121549 6 0 0.0 1.6 0.00 0.08 0.00 88 1013.8
20260506121041 6 265 0.0 1.6 0.00 0.08 0.00 87 1013.7
20260506120541 5 137 0.0 1.6 0.00 0.08 0.00 88 1013.7
20260506120048 5 0 0.0 1.6 0.00 0.08 0.00 87 1013.7
20260506115541 5 238 0.0 1.6 0.00 0.08 0.00 87 1013.7
20260506115039 5 0 0.0 1.6 0.00 0.08 0.00 86 1013.5
20260506114551 5 221 0.0 1.6 0.00 0.08 0.00 86 1013.4
20260506114040 5 0 0.0 1.6 0.00 0.08 0.00 86 1013.2
20260506113540 5 221 0.0 3.2 0.00 0.08 0.00 85 1013.2
20260506113104 5 0 0.0 3.2 0.00 0.08 0.00 85 1012.9
20260506112541 5 265 0.0 3.2 0.00 0.08 0.00 85 1012.7
20260506112038 5 265 0.0 3.2 0.00 0.08 0.00 85 1012.6
20260506111601 5 0 0.0 3.2 0.00 0.08 0.00 85 1012.6
20260506111040 5 0 0.0 1.6 0.00 0.08 0.00 86 1012.5
20260506110539 5 51 0.0 3.2 0.00 0.08 0.00 86 1012.6
20260506110056 5 0 0.0 3.2 0.00 0.08 0.00 87 1012.5
20260506105540 5 0 0.0 3.2 0.00 0.08 0.00 87 1012.5
20260506105041 5 0 0.0 3.2 0.00 0.08 0.00 87 1012.5
20260506104610 5 0 0.0 3.2 0.00 0.08 0.00 88 1012.4
20260506104041 5 0 0.0 1.6 0.00 0.08 0.00 88 1012.3
20260506103541 5 0 0.0 1.6 0.00 0.08 0.00 89 1012.2
20260506103049 5 0 0.0 1.6 0.00 0.08 0.00 89 1012.1
20260506102541 5 0 0.0 1.6 0.00 0.08 0.00 89 1012.1
20260506102041 5 0 0.0 1.6 0.00 0.08 0.00 89 1011.9
20260506101556 5 0 0.0 1.6 0.00 0.08 0.00 89 1012.2
20260506101040 5 0 0.0 1.6 0.00 0.08 0.00 89 1012.2
20260506100538 5 0 0.0 3.2 0.00 0.08 0.00 89 1012.2
20260506100104 5 0 0.0 3.2 0.00 0.08 0.00 89 1012.1
20260506095543 6 265 0.0 1.6 0.00 0.08 0.00 90 1012.2
20260506095040 6 0 0.0 1.6 0.00 0.08 0.00 90 1012.3
20260506094555 6 0 0.0 1.6 0.00 0.08 0.00 90 1012.0
20260506094039 6 196 0.0 1.6 0.00 0.08 0.00 90 1012.0
20260506093542 6 0 0.0 1.6 0.00 0.08 0.00 90 1011.9
20260506093047 6 0 0.0 1.6 0.00 0.08 0.00 90 1012.0
20260506092542 6 0 0.0 1.6 0.00 0.08 0.00 90 1011.7
20260506092042 6 0 0.0 3.2 0.00 0.08 0.00 90 1011.6
20260506091548 6 0 0.0 3.2 0.00 0.08 0.00 90 1011.6
20260506091043 6 0 0.0 1.6 0.00 0.08 0.00 91 1011.6
20260506090544 6 0 0.0 1.6 0.00 0.08 0.00 91 1011.7
20260506090047 6 0 0.0 1.6 0.00 0.08 0.00 91 1011.6
20260506085540 6 0 0.0 1.6 0.00 0.08 0.00 91 1011.6
20260506085040 6 0 0.0 1.6 0.00 0.08 0.00 91 1011.7
20260506084550 6 0 0.0 1.6 0.00 0.08 0.00 91 1012.0
20260506084040 6 0 0.0 1.6 0.00 0.08 0.00 91 1011.9
20260506083541 6 0 0.0 1.6 0.00 0.08 0.00 91 1011.9
20260506083050 6 0 0.0 1.6 0.00 0.08 0.00 91 1012.0
20260506082542 6 0 0.0 1.6 0.00 0.08 0.00 91 1011.9
20260506082044 6 0 0.0 1.6 0.00 0.08 0.00 91 1011.8
20260506081549 6 0 0.0 1.6 0.00 0.08 0.00 91 1011.8
20260506081041 6 0 0.0 1.6 0.00 0.08 0.00 91 1011.7
20260506080541 6 265 0.0 1.6 0.00 0.08 0.00 90 1011.5
20260506073050 7 0 0.0 1.6 0.00 0.08 0.00 89 1011.3
20260506072538 7 0 0.0 1.6 0.00 0.08 0.00 89 1011.3
20260506072043 7 221 0.0 1.6 0.00 0.08 0.00 88 1011.3
20260506071606 7 0 0.0 1.6 0.00 0.08 0.00 88 1011.3
20260506071038 7 247 0.0 1.6 0.00 0.08 0.00 87 1011.4
20260506070541 7 0 0.0 1.6 0.00 0.08 0.00 87 1011.2
20260506062039 8 0 0.0 0.0 0.00 0.08 0.00 86 1011.1
20260506061543 8 0 0.0 0.0 0.00 0.08 0.00 86 1011.1
20260506061038 8 0 0.0 0.0 0.00 0.08 0.00 87 1010.9
20260506060541 8 0 0.0 0.0 0.00 0.08 0.00 87 1011.0
20260506051043 8 0 0.0 1.6 0.00 0.08 0.00 83 1011.0
20260506050542 8 0 0.0 1.6 0.00 0.08 0.00 83 1011.0
20260506045041 8 0 0.0 1.6 0.00 0.08 0.08 84 1010.9
20260506044555 9 0 0.0 1.6 0.00 0.08 0.08 84 1011.1
20260506044038 9 0 0.0 1.6 0.00 0.08 0.08 83 1010.9
20260506043545 9 0 0.0 1.6 0.00 0.08 0.08 83 1010.8
20260506043043 9 0 0.0 1.6 0.00 0.08 0.08 83 1010.8
20260506042540 9 178 0.0 1.6 0.00 0.08 0.08 83 1010.9
20260506042041 9 0 0.0 1.6 0.00 0.08 0.08 83 1010.9
20260506041600 9 178 0.0 1.6 0.00 0.08 0.08 83 1010.8
20260506041041 9 0 0.0 0.0 0.00 0.08 0.08 83 1010.7
20260506040542 9 0 0.0 0.0 0.00 0.08 0.08 83 1010.7
20260506040049 9 0 0.0 0.0 0.00 0.08 0.08 83 1010.7
20260506035544 9 0 0.0 0.0 0.00 0.13 0.08 83 1011.0
20260506035043 9 0 0.0 0.0 0.00 0.13 0.08 83 1011.0
20260506034549 9 0 0.0 0.0 0.00 0.13 0.08 83 1011.0
20260506034041 9 0 0.0 0.0 0.00 0.13 0.08 83 1011.0
20260506033544 9 0 0.0 0.0 0.00 0.13 0.08 83 1011.0
20260506033048 10 0 0.0 0.0 0.00 0.13 0.08 84 1011.0
20260506032542 10 0 0.0 0.0 0.00 0.13 0.08 83 1011.2
20260506032041 10 0 0.0 0.0 0.00 0.13 0.08 83 1010.9
20260506031552 10 0 0.0 0.0 0.00 0.13 0.08 84 1010.9
20260506031041 10 0 0.0 0.0 0.00 0.13 0.08 83 1010.9
20260506030541 10 0 0.0 1.6 0.00 0.13 0.08 82 1010.9
20260506030046 10 0 0.0 1.6 0.00 0.13 0.08 81 1011.0
20260506025543 10 0 0.0 1.6 0.00 0.66 0.08 82 1011.0
20260506025040 10 0 0.0 1.6 0.00 0.66 0.08 82 1010.9
20260506024552 10 0 0.0 1.6 0.00 0.66 0.08 82 1011.1
20260506024040 10 0 0.0 1.6 0.00 0.66 0.08 82 1011.0
20260506023540 10 0 0.0 1.6 0.00 0.66 0.08 81 1011.0
20260506023051 10 0 0.0 1.6 0.00 0.66 0.08 81 1010.8
20260506022540 10 0 0.0 1.6 0.00 0.66 0.08 81 1010.9
20260506022040 10 0 0.0 1.6 0.00 0.66 0.08 80 1010.8
20260506021554 10 0 0.0 1.6 0.00 0.66 0.08 80 1010.6
20260506021039 10 0 0.0 1.6 0.00 0.66 0.08 81 1010.4
20260506020540 10 0 0.0 1.6 0.00 0.66 0.08 81 1010.3
20260506020051 10 0 0.0 1.6 0.00 0.66 0.08 80 1010.2
20260506015541 10 0 0.0 1.6 0.00 0.66 0.08 78 1010.0
20260506015041 10 0 0.0 1.6 0.00 0.66 0.08 76 1010.0
20260506014555 10 0 0.0 1.6 0.00 0.66 0.08 77 1010.0
20260506014040 10 0 0.0 1.6 0.00 0.66 0.08 77 1010.1
20260506013539 10 0 0.0 1.6 0.00 0.66 0.08 77 1010.3
20260506013043 10 178 0.0 1.6 0.00 0.66 0.08 76 1010.2
20260506012540 10 0 0.0 1.6 0.00 0.66 0.08 76 1010.1
20260506012040 10 0 0.0 1.6 0.00 0.66 0.08 76 1009.9
20260506011552 10 0 0.0 1.6 0.00 0.66 0.08 77 1009.9
20260506011040 10 0 0.0 1.6 0.00 0.66 0.08 77 1009.9
20260506010543 10 0 0.0 1.6 0.00 0.66 0.08 75 1009.7
20260506010048 10 0 0.0 1.6 0.00 0.66 0.08 74 1009.6
20260506005542 10 0 0.0 1.6 0.00 0.66 0.08 74 1009.6
20260506005040 10 0 0.0 1.6 0.00 0.66 0.08 74 1009.7
20260506004550 11 0 0.0 1.6 0.00 0.66 0.08 75 1009.6
20260506004041 11 0 0.0 1.6 0.00 0.66 0.08 73 1009.5
20260506003540 11 0 0.0 1.6 0.00 0.66 0.08 70 1009.5
20260506003049 11 0 0.0 1.6 0.00 0.66 0.08 70 1009.4
20260506002544 11 0 0.0 1.6 0.00 0.66 0.08 70 1009.4
20260506002040 11 0 0.0 1.6 0.00 0.66 0.08 69 1009.3
20260506001614 11 0 0.0 1.6 0.00 0.66 0.08 70 1009.3
20260506001040 11 0 0.0 1.6 0.00 0.66 0.08 70 1009.3
20260506000541 11 0 0.0 1.6 0.00 0.66 0.08 69 1009.2
20260506000051 11 0 0.0 1.6 0.00 0.66 0.08 69 1009.3
20260505235541 11 0 0.0 1.6 0.00 0.66 0.08 67 1009.3
20260505235041 11 0 0.0 1.6 0.00 0.66 0.08 67 1009.3
20260505234552 11 0 0.0 1.6 0.00 0.66 0.08 67 1009.3
20260505234042 11 0 0.0 3.2 0.00 0.66 0.08 66 1009.4
20260505233540 11 0 0.0 3.2 0.00 0.66 0.08 65 1009.4